www.pogodaiklimat.ru
Время
и дата
14:52 30.12
15:02 30.12
15:30 30.12
15:52 30.12
16:52 30.12
17:05 30.12
17:52 30.12
18:52 30.12
19:12 30.12
19:52 30.12
20:52 30.12
20:59 30.12
21:52 30.12
22:52 30.12
23:41 30.12
23:52 30.12
00:52 31.12
01:52 31.12
02:04 31.12
02:52 31.12
03:09 31.12
03:24 31.12
03:52 31.12
04:52 31.12
05:52 31.12
06:52 31.12
07:52 31.12
08:00 31.12
08:14 31.12
08:52 31.12
09:29 31.12
09:52 31.12
10:33 31.12
10:52 31.12
11:41 31.12
11:52 31.12
12:11 31.12
12:41 31.12
12:50 31.12
12:52 31.12
13:52 31.12
14:22 31.12
14:35 31.12
14:52 31.12
15:52 31.12
16:06 31.12
16:35 31.12
16:52 31.12
Ветер
(напр.,м/с)
Видим. Явления Облачность Т
(С)
Тd
(С)
f
(%)
Тe
(С)
Тes
(С)
Комфортность P
(гПа)
Po
(гПа)
Тmin
(С)
Tmax
(С)
R
(мм)
R24
(мм)
S
(см)
Ю 1 2 км слабый снег, дымка 10/10 90 м -3.3 -3.3 100 -9 -9 1009.1 976.6
ЮВ 1 2 км дымка 10/10 240 м -3.3 -3.3 100 -9 -9 976.6
ЮВ 1 4 км дымка 10/10 180 м -2.8 -2.8 100 -7 -7 976.3
Ю 1 4 км дымка 10/10 150 м -2.8 -2.8 100 -7 -7 1008.6 976.3
Ю 1 4 км дымка 10/10 150 м -2.8 -2.8 100 -8 -8 1009.0 976.6
Ю 1 6 км дымка 10/10 150 м -2.8 -2.8 100 -7 -7 976.6
Ю 1 5 км дымка 10/10 120 м -2.8 -2.8 100 -8 -8 1009.0 976.6 -4.4 -2.8
Ю 1 5 км дымка 10/10 120 м -2.8 -2.8 100 -8 -8 1009.1 976.6
Ю 2 5 км дымка 10/10 180 м -2.8 -2.8 100 -9 -9 977.0
Ю 2 5 км дымка 10/10 180 м -2.8 -2.8 100 -9 -9 1009.3 977.0
Ю 1 6 км дымка 10/10 180 м -2.2 -2.2 100 -6 -6 1009.5 977.3
ЮЗ 1 6 км дымка 10/10 330 м -2.2 -2.2 100 -6 -6 977.3
штиль 0 8 км дымка 10/10 360 м -2.2 -2.2 100 -4 -4 1010.0 977.6
штиль 0 6 км дымка 10/10 450 м -2.2 -2.2 100 -4 -4 1009.7 977.6
Ю 1 8 км дымка 10/10 420 м -2.8 -2.8 100 -7 -7 977.6
Ю 1 6 км дымка 10/10 420 м -2.8 -2.8 100 -7 -7 1009.7 977.6 -2.8 -2.2
ЮЗ 1 10 км дымка 10/10 360 м -2.8 -2.8 100 -7 -7 1009.2 977.0
ЮВ 1 10 км дымка 8/8 300 м -3.9 -3.9 100 -8 -8 1009.0 976.6
ЮВ 1 8 км дымка 5/5 300 м -5.0 -5.0 100 -10 -10 976.6
ЮВ 2 5 км дымка ясно -6.7 -6.7 100 -14 -14 1008.8 976.6
ЮВ 1 4 км дымка ясно -7.8 -7.8 100 -14 -14 976.3
ЮВ 1 5 км дымка ясно -6.7 -6.7 100 -11 -11 976.3
ЮВ 2 6 км дымка ясно -6.1 -6.1 100 -14 -14 1007.7 975.3
В 2 6 км дымка ясно -7.2 -7.2 100 -14 -14 1007.0 974.7
В 2 5 км дымка ясно -7.8 -7.8 100 -15 -15 1007.5 975.3 -7.8 -2.8
В 2 8 км дымка ясно -6.1 -6.1 100 -13 -13 1007.0 974.7
В 2 6 км дымка ясно -5.6 -5.6 100 -13 -13 1006.3 974.0
В 2 6 км дымка 5/5 240 м -5.0 -5.0 100 -12 -12 974.3
В 3 6 км дымка 8/8 180 м -3.9 -3.9 100 -12 -12 974.0
В 3 6 км дымка 10/10 150 м -3.3 -3.3 100 -12 -12 1006.0 974.0
В 4 4 км дымка 10/10 150 м -3.3 -3.3 100 -12 -12 973.7
В 4 4 км дымка 10/10 150 м -2.8 -2.8 100 -11 -11 1005.8 973.7
В 3 5 км дымка 10/10 150 м -2.8 -2.8 100 -10 -10 974.3
В 4 5 км дымка 10/10 150 м -2.8 -2.8 100 -11 -11 1006.0 974.0
В 4 3 км дымка 10/10 180 м -2.2 -2.8 96 -11 -11 971.7
СВ 3 2 км дымка 10/10 180 м -2.2 -2.2 100 -10 -10 1003.8 972.0 -7.8 -2.2
В 3 1 км дымка 10/10 150 м -2.2 -2.2 100 -10 -10 972.0
СВ 3 2 км дымка 10/10 90 м -2.2 -2.2 100 -10 -10 971.4
СВ 2 1 км дымка 10/10 90 м -2.0 -2.0 100 -9 -9 971.4
СВ 2 1 км дымка 10/10 120 м -2.2 -2.2 100 -9 -9 1003.5 971.4
СВ 2 2 км дымка 10/10 90 м -1.7 -1.7 100 -8 -8 1002.6 970.7
СВ 2 1 км дымка 10/10 120 м -2.2 -2.2 100 -8 -8 971.1
СВ 3 2 км дымка 10/10 90 м -2.2 -2.2 100 -10 -10 971.4
СВ 2 2 км дымка 10/10 120 м -1.7 -1.7 100 -8 -8 1003.7 971.7
С 3 2 км дымка 10/10 120 м -1.7 -1.7 100 -9 -9 1004.6 972.4
С 3 2 км дымка 10/10 150 м -1.7 -1.7 100 -10 -10 973.0
С 4 3 км дымка 10/10 150 м -1.7 -1.7 100 -10 -10 973.7
С 4 5 км дымка 10/10 210 м -2.2 -2.2 100 -11 -11 1005.9 973.7
Местоположение метеостанции The Eastern Iowa Airport: широта 41.8844 долгота -91.7106 высота над уровнем моря 263 м.
В архиве по умолчанию представлена погода в Сидар-Рапидсе за последние 1-2 суток. Обновление информации о фактической погоде в базе происходит ежечасно! Архивные данные за месяц целиком и за предыдущие месяцы Вы можете получить, выбрав интересующий диапазон дат из раскрывающегося списка и нажав кнопку "Ввод!".
Внимание! Архив погоды МЕТАР в базе сайта по станциям, не включенным в климатический монитор, хранится не более 60 дней. Нет смысла пытаться выбрать более раннюю дату.
*Определитесь, кто Вы:
Внимание! Время в таблицах - местное (без учета летнего времени). Для получения всемирного времени необходимо вычесть поправку, которая равна -6 ч.
Смотрите также архив погоды в соседних городах и на ближайших метеорологических станциях:
Партнеры нашего сайта:      
Пояснения к столбцам:
  • Ветер - указаны скорость ветра в м/с - средняя за 10 мин, порывы в срок и между сроками (в фигурных скобках) и направление, откуда дует ветер: С - северный,
  • СВ - северо-восточный, В - восточный, ЮВ - юго-восточный, Ю - южный, ЮЗ - юго-западный, З - западный, СЗ - северо-западный.
  • Видимость - горизонтальная дальность видимости в метрах или километрах. При видимости от 1 до 10 км при отсутствии осадков обычно наблюдается дымка, при ухудшении видимости до 1 км и менее - туман. В сухую погоду видимость может ухудшаться дымом, пылью или мглою.
  • Явления - указаны атмосферные явления, наблюдавшиеся в срок или в последний час перед сроком; фигурными скобками обозначены явления, наблюдавшиеся между сроками (за 1-3 часа до срока); квадратными скобками обозначены град или гололедные отложения с указанием их диаметра в мм.
  • Облачность - указаны через наклонную черту общая и нижняя облачность в баллах и высота нижней границы облаков в метрах; квадратными скобками обозначены формы облаков: Ci - перистые, Cs - перисто-слоистые, Cc - перисто-кучевые, Ac - высококучевые, As - высокослоистые, Sc - слоисто-кучевые, Ns - слоисто-дождевые, Cu - кучевые, Cb - кучево-дождевые. Подробнее классификацию облаков см. в Атласе облаков (PDF).
  • T - Температура воздуха - температура, измеренная на высоте 2 м над землей.
  • Td - Температура точки росы - температура, при понижении до которой содержащийся в воздухе водяной пар достигнет насыщения.
  • f - Относительная влажность воздуха - влажноcть воздуха, измеренная на высоте 2 м над землей.
  • Te - Эффективная температура - температура, которую ощущает одетый по сезону человек в тени. Характеристика душности погоды. При расчете учитывается влияние влажности воздуха и скорости ветра на теплоощущения человека.
  • Tes - Эффективная температура на солнце - температура, которую ощущает человек, с поправкой на солнечный нагрев. Характеристика знойности погоды. Зависит от высоты солнца над горизонтом, облачности и скорости ветра. Ночью, в пасмурную погоду, а также при ветре 12 м/с и более поправка равна нулю.
  • P - Атмосферное давление - приведенное к уровню моря атмосферное давление.
  • Po - Атмосферное давление - измеренное на уровне метеостанции атмосферное давление.
  • Tmin - Минимальная температура - минимум температуры воздуха на высоте 2 м над землей.
  • Tmax - Максимальная температура - максимум температуры воздуха на высоте 2 м над землей.
  • R - Количество осадков - Количество выпавших осадков за период времени, мм. При наведении курсора мыши на число - период времени, за который выпало указанное количество осадков.
  • R24 - Количество осадков - Количество выпавших осадков за 24 часа, мм.
  • S - Снежный покров - Высота снежного покрова, см. При наведении курсора мыши на число - состояние снежного покрова и степень покрытия местности в баллах.